Simultaneous Nadir Overpasses (SNOs) Predictions

Prediction of SNOs between GOES-14 and NOAA-20 Satellite Orbit:

Table of predicted SNOs for the next 14.0 days since TLE Epoch: 3/23/2024
Index Date Time (GOES-14) GOES-14 Lat,Lon NOAA-20 Lat,Lon Distance(km) Time Diff (sec)
1 03/23/2024 20:37:22 -0.15,-108.48 0.05,-107.64 95.83 80
2 03/25/2024 08:56:37 0.15,-108.47 1.00,-112.29 435.22 80
3 03/26/2024 08:33:32 0.15,-108.47 -0.13,-107.36 127.49 80
4 03/27/2024 20:52:53 -0.15,-108.50 -0.95,-112.03 403.39 80
5 03/28/2024 20:35:07 -0.15,-108.50 0.14,-107.09 159.71 80
6 03/30/2024 08:54:22 0.15,-108.49 0.88,-111.75 371.80 80
7 03/31/2024 08:31:17 0.15,-108.49 -0.20,-106.81 190.49 80
8 04/01/2024 20:50:37 -0.16,-108.49 -0.82,-111.49 341.22 80
9 04/02/2024 20:32:52 -0.16,-108.49 0.28,-106.55 221.50 80
10 04/04/2024 08:52:07 0.17,-108.48 0.76,-111.21 310.24 80
11 04/05/2024 08:29:02 0.17,-108.48 -0.34,-106.27 252.06 80
